Location: Atherton
(17.2661°S, 145.4859°E)
Time: 10:55:04
(UTC+10:00)

Vanguard 1 - Pass Details

Date: 30 June 2025
Orbit: 649 x 3822 km, 34.2° (Epoch: 05 July)

Event Time Altitude Azimuth Distance (km) Brightness Sun altitude
Rises 00:52:26 0° 237° (WSW) 4,231 - -80.7°
Reaches altitude 10° 00:55:54 10° 233° (SW) 2,867 - -80.0°
Maximum altitude 01:02:08 63° 152° (SSE) 844 - -78.8°
Drops below altitude 10° 01:06:35 10° 70° (ENE) 2,068 - -77.9°
Sets 01:08:43 0° 66° (ENE) 2,949 - -77.5°
